Weather History for Cheyenne, WY

Change the Weather History Date:

Friday, November 16, 2012

  Actual Average Record
Temperature  
Mean Temperature 39 °F 35 °F  
Max Temperature 55 °F 46 °F 70 °F (1999)
Min Temperature 23 °F 24 °F -20 °F (1875)
Degree Days  
Heating Degree Days 26 30  
Month to date heating degree days 403 427  
Since 1 July heating degree days 1205 1286  
Cooling Degree Days 0 0  
Month to date cooling degree days 0 0  
Year to date cooling degree days 568 348  
Moisture  
Dew Point 20 °F    
Average Humidity 56    
Maximum Humidity 92    
Minimum Humidity 19    
Precipitation  
Precipitation 0.00 in 0.02 in 0.22 in (1926)
Month to date precipitation 0.02 0.32  
Year to date precipitation 9.58 15.18  
Snow  
Snow 0.00 in 0.20 in 2.50 in (1958)
Month to date snowfall 0.4 3.9  
Since 1 July snowfall 10.6 10.2  
Snow Depth 0.00 in    
Sea Level Pressure  
Sea Level Pressure 30.15 in    
Wind  
Wind Speed 7 mph (SW)    
Max Wind Speed 17 mph    
Max Gust Speed 21 mph    
Visibility 10 miles    
Events      
T = Trace of Precipitation, MM = Missing Value Source: NWS Daily Summary

Daily Weather History Graph

Daily Weather History Graph

Search for Another Location

Airport:

Trip Planner

Search our weather history database for the weather conditions in past years. The results will help you decide how hot, cold, wet, or windy it might be!

Date:

Astronomy

Nov. 16, 2012 Rise Set
Actual Time 6:48 AM MST 4:38 PM MST
Civil Twilight 6:19 AM MST 5:08 PM MST
Nautical Twilight 5:45 AM MST 5:42 PM MST
Astronomical Twilight 5:13 AM MST 6:14 PM MST
Moon 9:46 AM MST (11/16) 7:41 PM MST (11/16)
Length of Visible Light 10h 49m
Length of Day
9h 49m
Waxing Crescent, 12% of the Moon is Illuminated
Nov 16
Waxing Crescent
Nov 20
First Quarter
Nov 28
Full
Dec 6
Last Quarter
Dec 13
New

Hourly Weather History & Observations

Time (MST) Temp. Windchill Dew Point Humidity Pressure Visibility Wind Dir Wind Speed Gust Speed Precip Events Conditions
12:53 AM 27.0 °F 18.7 °F 24.1 °F 89% 30.29 in 6.0 mi SSW 8.1 mph - N/A   Clear
1:53 AM 28.0 °F 22.8 °F 23.0 °F 81% 30.27 in 7.0 mi SSW 4.6 mph - N/A   Clear
2:53 AM 25.0 °F 18.1 °F 21.0 °F 85% 30.27 in 10.0 mi SW 5.8 mph - N/A   Clear
3:53 AM 25.0 °F 19.3 °F 21.0 °F 85% 30.27 in 10.0 mi SW 4.6 mph - N/A   Clear
4:53 AM 25.0 °F 18.1 °F 19.9 °F 81% 30.28 in 10.0 mi WSW 5.8 mph - N/A   Clear
5:53 AM 27.0 °F 20.5 °F 21.0 °F 78% 30.27 in 10.0 mi SW 5.8 mph - N/A   Clear
6:53 AM 28.0 °F 24.2 °F 21.0 °F 75% 30.27 in 10.0 mi South 3.5 mph - N/A   Clear
7:53 AM 30.9 °F 22.8 °F 21.9 °F 69% 30.26 in 10.0 mi SW 9.2 mph - N/A   Clear
8:53 AM 44.1 °F 39.0 °F 21.9 °F 42% 30.19 in 10.0 mi SW 9.2 mph - N/A   Clear
9:53 AM 48.9 °F - 19.0 °F 31% 30.15 in 10.0 mi SSW 8.1 mph - N/A   Clear
10:53 AM 52.0 °F - 16.0 °F 24% 30.13 in 10.0 mi SSW 12.7 mph - N/A   Clear
11:53 AM 53.1 °F - 14.0 °F 21% 30.09 in 10.0 mi SSW 12.7 mph - N/A   Clear
12:53 PM 53.1 °F - 19.0 °F 26% 30.09 in 10.0 mi SSW 10.4 mph - N/A   Clear
1:53 PM 53.1 °F - 14.0 °F 21% 30.06 in 10.0 mi SSW 12.7 mph - N/A   Clear
2:53 PM 52.0 °F - 10.9 °F 19% 30.08 in 10.0 mi SSW 12.7 mph - N/A   Clear
3:53 PM 48.0 °F - 14.0 °F 26% 30.11 in 10.0 mi SSW 8.1 mph - N/A   Clear
4:53 PM 45.0 °F 43.5 °F 19.9 °F 37% 30.13 in 10.0 mi WSW 3.5 mph - N/A   Scattered Clouds
5:53 PM 43.0 °F 38.2 °F 23.0 °F 45% 30.13 in 10.0 mi SSW 8.1 mph - N/A   Overcast
6:53 PM 42.1 °F 40.2 °F 24.1 °F 49% 30.12 in 10.0 mi SSW 3.5 mph - N/A   Mostly Cloudy
7:53 PM 43.0 °F 38.2 °F 24.1 °F 47% 30.09 in 10.0 mi WSW 8.1 mph - N/A   Mostly Cloudy
8:53 PM 42.1 °F 38.4 °F 19.9 °F 41% 30.02 in 10.0 mi WSW 5.8 mph - N/A   Partly Cloudy
9:53 PM 44.1 °F - 17.1 °F 34% 29.99 in 10.0 mi Calm Calm - N/A   Partly Cloudy
10:53 PM 42.1 °F 38.4 °F 19.9 °F 41% 29.99 in 10.0 mi WNW 5.8 mph - N/A   Clear
11:53 PM 39.0 °F 33.4 °F 21.9 °F 50% 30.00 in 10.0 mi West 8.1 mph - N/A   Clear